Location: Vancouver
(49.2827°N, 123.1207°W)
Time: 09:40:06
(UTC-07:00)

ISS - Visible Passes

Search period start: 21 June 2024 00:00
Search period end: 01 July 2024 00:00
Orbit: 410 x 425 km, 51.6° (Epoch: 21 June)

Date Brightness Start Highest point End Pass type
(mag) Time Alt. Az. Time Alt. Az. Time Alt. Az.
23 Jun -1.3 04:07:26 10° SSE 04:08:46 12° SE 04:10:07 10° ESE visible
25 Jun -2.3 04:06:07 10° SSW 04:08:56 26° SE 04:11:48 10° E visible
26 Jun -1.8 03:19:40 15° SSE 03:20:58 18° SE 03:23:16 10° E visible
27 Jun -1.3 02:33:09 11° SE 02:33:09 11° SE 02:34:09 10° ESE visible
27 Jun -3.5 04:06:02 11° SW 04:09:09 54° SSE 04:12:26 10° ENE visible
28 Jun -3.0 03:19:26 22° SSW 03:21:01 37° SSE 03:24:08 10° E visible
29 Jun -2.5 02:32:45 25° SSE 02:32:53 25° SE 02:35:41 10° E visible
29 Jun -3.7 04:06:02 10° WSW 04:09:22 85° NNW 04:12:44 10° ENE visible
30 Jun -1.5 01:45:59 14° ESE 01:45:59 14° ESE 01:47:00 10° E visible
30 Jun -3.8 03:18:52 19° WSW 03:21:05 73° SSE 03:24:26 10° ENE visible
